Simultaneous Nadir Overpasses (SNOs) Predictions

Prediction of SNOs between AURA and NPP Satellite Orbit:

Table of predicted SNOs for the next 14.0 days since TLE Epoch: 9/2/2023
Index Date (AURA) Time (AURA) Lat,Lon (AURA) SZA (AURA ) Date (NPP) Time (NPP) Lat,Lon (NPP) SZA (NPP ) Distance(km) Time Diff (sec)
1 09/02/2023 09:25:43 -79.95, 119.41 96.23 09/02/2023 09:25:08 -79.95, 119.51 96.22 1.92 35
2 09/02/2023 10:15:04 80.08, -71.83 83.58 09/02/2023 10:15:48 80.08, -71.88 83.55 0.99 44
3 09/05/2023 00:51:13 80.00, 68.49 84.61 09/05/2023 00:51:14 80.00, 68.48 84.61 0.36 1
4 09/07/2023 15:27:21 79.89,-151.44 85.70 09/07/2023 15:26:40 79.89,-151.49 85.74 1.02 41
5 09/07/2023 16:16:42 -80.06, 17.64 94.57 09/07/2023 16:17:20 -80.06, 17.49 94.57 2.97 38
6 09/10/2023 06:52:48 -80.03, 158.31 93.58 09/10/2023 06:52:44 -80.03, 158.39 93.59 1.58 4
7 09/10/2023 07:41:26 81.33, -18.31 83.89 09/10/2023 07:42:39 81.10, -17.60 83.71 28.26 73
8 09/12/2023 21:28:56 -79.89, -61.84 92.43 09/12/2023 21:28:12 -79.88, -61.92 92.38 1.66 44
9 09/12/2023 22:18:14 80.12, 107.71 87.23 09/12/2023 22:18:48 80.12, 107.80 87.19 1.79 34
10 09/15/2023 12:54:21 79.98,-112.46 88.39 09/15/2023 12:54:16 79.97,-112.60 88.42 2.88 5



Historial Predications of SNOs between AURA and NPP
